Content
SEND FEEDBACK

Daily
Averages
Monthly
Summary
United States of America

SEBREE, KENTUCKY


Home > North America > United States > Kentucky
Elevation: 36 feet     Latitude: 37 36N     Longitude: 087 32W

WEATHER
 
SELECT A DAY
Number of Records: 146,044;   Date Range: 1/1/95 - 7/7/14
 
SHARE

PRINT THIS DATA

[ ← Previous Day ]
WEATHER ALMANAC - FEBRUARY 13, 2013
[ Next Day → ]
[ °C ]   °F
Weather ElementAverageHighLow
Temperature38.6 °F44.6 °F (2:15 pm)33.8 °F (6:55 am)
Dewpoint27 °F30.2 °F (2:15 pm)23 °F (6:55 am)
Humidity63.4 %70 % (7:15 am)53 % (2:55 pm)
Barometer29.88 in29.93 in (9:35 pm)29.83 in (2:55 am)
Wind Speed7.9 mph12.7 mph (6:35 am)
Wind Gust16.1 mph (6:35 am)
Weather ElementAverage
Visibility9.1 mi
Wind DirectionSSW (215.5 °)

Weather ElementTotal
Precipitation0.08 in
Heating Degree Days25.8 (Base 65)
Averaged from 65 records on February 13, 2013
WEATHER CONDITIONS BREAKOUT
WIND DIRECTION BREAKOUT
WEATHER BY HOUR - FEBRUARY 13, 2013
[ °C ]   °F
Local TimeTemperatureDewpointHumidityBarometerVisibilityWind DirectionWind SpeedGust SpeedPrecipitationEventsConditions
12:35 AM41.0 °F28.4 °F61 %29.89 in10.0 miNNE (20°)8.1 mphOvercast
12:55 AM39.2 °F28.4 °F65 %29.88 in10.0 miNNE (20°)6.9 mphOvercast
1:15 AM39.2 °F28.4 °F65 %29.86 in10.0 miNNE (30°)8.1 mphOvercast
1:35 AM39.2 °F26.6 °F61 %29.86 in10.0 miNorth (10°)8.1 mphOvercast
1:55 AM39.2 °F26.6 °F61 %29.86 in10.0 miNorth (10°)8.1 mphOvercast
2:15 AM39.2 °F26.6 °F61 %29.85 in10.0 miNorth (10°)8.1 mphOvercast
2:35 AM39.2 °F26.6 °F61 %29.84 in10.0 miNNE (20°)8.1 mphOvercast
2:55 AM39.2 °F26.6 °F61 %29.83 in10.0 miNNE (30°)6.9 mphOvercast
3:15 AM39.2 °F26.6 °F61 %29.84 in10.0 miNorth (360°)8.1 mphOvercast
3:35 AM39.2 °F26.6 °F61 %29.84 in10.0 miNE (40°)6.9 mphOvercast
3:55 AM39.2 °F26.6 °F61 %29.84 in10.0 miNorth (360°)4.6 mphOvercast
4:15 AM39.2 °F26.6 °F61 %29.84 in10.0 miNNW (340°)5.8 mphOvercast
4:35 AM39.2 °F24.8 °F56 %29.84 in10.0 miNNW (330°)4.6 mphOvercast
5:15 AM37.4 °F26.6 °F65 %29.85 in10.0 miNNW (340°)3.5 mphOvercast
5:35 AM37.4 °F24.8 °F60 %29.84 in10.0 miNorth (360°)8.1 mphOvercast
6:15 AM35.6 °F24.8 °F65 %29.85 in10.0 miNorth (10°)8.1 mphOvercast
6:35 AM35.6 °F24.8 °F65 %29.86 in10.0 miNorth (10°)12.7 mph16.1 mphOvercast
6:55 AM33.8 °F23.0 °F65 %29.86 in3.0 miNorth (360°)9.2 mphOvercast
7:15 AM33.8 °F24.8 °F70 %29.87 in4.0 miNorth (360°)4.6 mphOvercast
7:35 AM33.8 °F24.8 °F70 %29.88 in2.5 miNorth (350°)5.8 mphOvercast
7:55 AM33.8 °F24.8 °F70 %29.88 in3.0 miNorth (350°)5.8 mph0.02 inOvercast
8:35 AM33.8 °F24.8 °F70 %29.89 in1.5 miNorth (360°)5.8 mph0.01 inOvercast
8:55 AM33.8 °F24.8 °F70 %29.89 in1.8 miNorth (360°)4.6 mph0.03 inOvercast
9:15 AM33.8 °F24.8 °F70 %29.90 in3.0 miNorth (350°)5.8 mphOvercast
9:35 AM33.8 °F24.8 °F70 %29.90 in5.0 miNorth (350°)6.9 mph0.01 inOvercast
9:55 AM35.6 °F26.6 °F70 %29.91 in10.0 miNorth (10°)9.2 mph0.01 inOvercast
10:15 AM35.6 °F26.6 °F70 %29.91 in10.0 miNorth (360°)9.2 mphOvercast
10:35 AM35.6 °F26.6 °F70 %29.92 in10.0 miNorth (360°)4.6 mphOvercast
10:55 AM35.6 °F26.6 °F70 %29.92 in10.0 miNorth (360°)4.6 mphMostly Cloudy
11:15 AM35.6 °F26.6 °F70 %29.92 in10.0 miNNE (30°)3.5 mphOvercast
11:35 AM37.4 °F28.4 °F70 %29.92 in10.0 miWNW (300°)5.8 mphMostly Cloudy
11:55 AM39.2 °F28.4 °F65 %29.91 in10.0 miNW (310°)8.1 mphOvercast
12:15 PM39.2 °F28.4 °F65 %29.89 in10.0 miWSW (250°)6.9 mphOvercast
12:35 PM41.0 °F28.4 °F61 %29.89 in10.0 miWSW (240°)5.8 mphOvercast
12:55 PM41.0 °F28.4 °F61 %29.88 in10.0 miWSW (250°)4.6 mphOvercast
1:15 PM42.8 °F28.4 °F57 %29.87 in10.0 miSW (220°)8.1 mphMostly Cloudy
1:35 PM42.8 °F28.4 °F57 %29.87 in10.0 miWSW (240°)6.9 mphOvercast
1:55 PM42.8 °F28.4 °F57 %29.87 in10.0 miWSW (240°)8.1 mphMostly Cloudy
2:15 PM44.6 °F30.2 °F57 %29.87 in10.0 miSW (230°)9.2 mphScattered Clouds
2:35 PM44.6 °F30.2 °F57 %29.87 in10.0 miWSW (250°)10.4 mphMostly Cloudy
2:55 PM44.6 °F28.4 °F53 %29.87 in10.0 miWSW (240°)6.9 mphMostly Cloudy
3:15 PM44.6 °F28.4 °F53 %29.88 in10.0 miWest (260°)9.2 mphScattered Clouds
3:35 PM44.6 °F30.2 °F57 %29.88 in10.0 miSW (220°)6.9 mphPartly Cloudy
3:55 PM44.6 °F30.2 °F57 %29.87 in10.0 miSW (220°)9.2 mphScattered Clouds
4:15 PM44.6 °F30.2 °F57 %29.87 in10.0 miSSW (210°)9.2 mphScattered Clouds
4:35 PM44.6 °F30.2 °F57 %29.87 in10.0 miSSW (210°)9.2 mphPartly Cloudy
4:55 PM44.6 °F30.2 °F57 %29.88 in10.0 miSW (220°)10.4 mphClear
5:15 PM42.8 °F28.4 °F57 %29.88 in10.0 miSSW (200°)6.9 mphClear
5:35 PM39.2 °F28.4 °F65 %29.88 in10.0 miSouth (180°)6.9 mphClear
5:55 PM37.4 °F26.6 °F65 %29.89 in10.0 miSouth (170°)6.9 mphClear
6:15 PM37.4 °F26.6 °F65 %29.89 in10.0 miSouth (170°)8.1 mphClear
6:55 PM37.4 °F26.6 °F65 %29.91 in10.0 miSSW (200°)6.9 mphClear
7:15 PM37.4 °F26.6 °F65 %29.91 in10.0 miSSW (200°)8.1 mphClear
7:35 PM37.4 °F26.6 °F65 %29.91 in10.0 miSSW (200°)9.2 mphClear
7:55 PM37.4 °F26.6 °F65 %29.91 in10.0 miSSW (200°)9.2 mphClear
8:15 PM37.4 °F26.6 °F65 %29.91 in10.0 miSSW (210°)10.4 mphClear
8:35 PM37.4 °F26.6 °F65 %29.92 in10.0 miSSW (200°)10.4 mphClear
9:15 PM37.4 °F26.6 °F65 %29.92 in10.0 miSSW (210°)11.5 mphClear
9:35 PM37.4 °F26.6 °F65 %29.93 in10.0 miSSW (200°)10.4 mphClear
10:15 PM35.6 °F26.6 °F70 %29.93 in10.0 miSSW (210°)10.4 mphClear
10:35 PM37.4 °F26.6 °F65 %29.93 in10.0 miSSW (210°)12.7 mphClear
10:55 PM37.4 °F26.6 °F65 %29.93 in10.0 miSW (220°)12.7 mphClear
11:15 PM37.4 °F26.6 °F65 %29.93 in10.0 miSW (220°)11.5 mphClear
11:35 PM37.4 °F26.6 °F65 %29.93 in10.0 miSW (220°)11.5 mphClear
11:55 PM37.4 °F26.6 °F65 %29.93 in10.0 miSW (220°)11.5 mphClear
Hourly data recorded from KEHR, located miles away from Sebree, Kentucky







STORIES FROM OUR PARTNERS